Location: Gönnheim
(49.4488°N, 8.2383°E)
Time: 22:05:48
(UTC+00:00)

Cosmos 1315 Rocket - Pass Details

Date: 19 May 2025
Orbit: 498 x 525 km, 81.2° (Epoch: 15 June)

Event Time Altitude Azimuth Distance (km) Brightness Sun altitude
Exits shadow 20:55:29 22° 157° (SSE) 1,200 3.9 -13.2°
Maximum altitude 20:57:39 43° 96° (E) 747 3.2 -13.4°
Drops below altitude 10° 21:01:21 10° 24° (NNE) 1,774 5.8 -13.7°
Sets 21:03:34 0° 18° (NNE) 2,665 6.9 -13.9°
